Location: Asheville, NC
(35.6000°N, 82.5500°W)
Time: 20:05:36

XW-2A - Pass Details

Date: 14 March 2018
Orbit: 436 x 455 km, 97.4° (Epoch: 17 March)

Event Time Altitude Azimuth Distance (km) Brightness Sun altitude
Exits shadow 21:07:30 - 184° (S) 2,219 ? -19.1°
Reaches altitude 10° 21:09:10 10° 191° (S) 1,533 ? -19.5°
Maximum altitude 21:12:15 39° 261° (W) 674 ? -20.1°
Drops below altitude 10° 21:15:23 10° 332° (NNW) 1,549 ? -20.7°
Sets 21:17:30 0° 340° (NNW) 2,424 ? -21.1°
